Find Starlink 37741

NORAD ID: 100297 Int'l Des: 2026-183 Owner: SPXS Country: US Constellation: starlink operational

Aktuelle Ansicht

3D-Globus wird geladen...

About Starlink 37741

Starlink 37741 (NORAD 100297) is a starlink constellation satellite launched Aug 11, 2026 by SPXS of US. with a mass of 575.00 kg.

Nächste Überflüge

Passes for default location (London). Set your location on the main map for personalized predictions.

Höhenverlauf

Loading altitude history...

Zweizeiliger Elementsatz

1 A0297U 26183AB 26248.24389308 .00331084 00000-0 16883-2 0 9994
2 A0297 53.1583 332.1300 0001213 113.2529 246.8621 15.79935282 3910
Epoch: 5. Sept. 2026 • Age: 8 hours

Aktueller Status

Höhe 333.1 km
Apogäum / Perigäum N/A
Geschwindigkeit 7.71 km/s
Subsatellitenpunkt 41.42°N, 84.87°W
Startdatum 11. Aug. 2026
Alter 24 days
Typ internet

Technische Details

Klassifizierung Payload
Masse 575.00 kg
Trockenmasse 530.00 kg
Gesamtmasse 575.00 kg
Länge 0.30 m
Durchmesser 4.10 m
Spannweite 29.00 m
Form Box + pan
Hersteller SPXS
Bus-Typ Starlink V2MO
Phasenstatus In Orbit
Besitzer/Staat SPXS/US

Most Searched